Regional Weather Roundup
Issued by NWS

Home | Current Version | Previous Version | Graphics & Text | Print | Product List | Glossary On
Versions: 1 2 3 4 5 6 7 8 9 10 11 12 13 14 15 16 17 18 19 20 21 22 23 24 25 26 27 28 29 30 31 32 33 34 35 36 37 38 39 40 41 42 43 44 45 46 47 48 49 50
000
ASUS43 KDTX 200710
RWRMI
MICHIGAN HOURLY REGIONAL WEATHER ROUNDUP
NATIONAL WEATHER SERVICE DETROIT/PONTIAC MI
300 AM EDT SUN APR 20 2014

NOTE: "FAIR" INDICATES FEW OR NO CLOUDS BELOW 12,000 FEET WITH NO
SIGNIFICANT WEATHER AND/OR OBSTRUCTION TO VISIBILITY.

MIZ047>049-052>055-059>063-066>070-074>076-081>083-200800-
SOUTHEAST LOWER MICHIGAN

CITY           SKY/WX    TMP DP  RH WIND       PRES   REMARKS
ADRIAN         PTCLDY    36  30  79 N6        30.32F WCI  31
ALMA           PTCLDY    36  34  92 CALM      30.32F
ANN ARBOR      PTCLDY    40  29  64 CALM      30.32F
BAD AXE        PTCLDY    35  29  76 SE5       30.35F WCI  31
CARO           PTCLDY    37  33  82 SE3       30.34S
DETROIT CITY   PTCLDY    41  29  62 NE3       30.33F
DETROIT        MOCLDY    41  28  60 CALM      30.33F
FLINT          PTCLDY    40  30  67 E3        30.34F
GROSSE ILE     PTCLDY    39  30  70 NE8       30.31F WCI  34
HILLSDALE      MOCLDY    38  31  74 E3        30.30F
HOWELL         PTCLDY    37  29  73 CALM      30.32F

CITY           SKY/WX    TMP DP  RH WIND       PRES   REMARKS
JACKSON        MOCLDY    38  29  70 SE5       30.31F WCI  34
LAMBERTVILLE   PTCLDY    41  32  70 E3        30.32F
LANSING        PTCLDY    42  30  62 SE7       30.32F
LAPEER         FAIR      32  31  96 CALM      30.34S
MASON          PTCLDY    38  31  76 SE3       30.32F
MONROE         CLEAR     37  30  75 E5        30.31F WCI  34
MT. CLEMENS    CLEAR     36  32  88 CALM      30.33F
PONTIAC        PTCLDY    40  28  62 E5        30.32F
PORT HOPE        N/A     38  28  67 S7        30.32F WCI  33
PORT HURON     PTCLDY    30  30 100 CALM      30.36S FOG
TRI CITIES     MOCLDY    41  31  67 S7        30.33S
TROY           PTCLDY    40  28  64 CALM      30.34F
SAGINAW HB     PTCLDY    39  32  75 CALM      30.34R
YPSILANTI      PTCLDY    40  29  64 NE5       30.33F
$$
MIZ043>046-050>051-056>058-064>065-071>073-077>080-200800-
SOUTHWEST LOWER MICHIGAN

CITY           SKY/WX    TMP DP  RH WIND       PRES   REMARKS
BATTLE CREEK   PTCLDY    43  28  55 SE6       30.30F
BENTON HARBOR  PTCLDY    44  28  53 SE9       30.27F
BIG RAPIDS     PTCLDY    38  31  76 CALM      30.27F
COLDWATER      MOCLDY    39  30  68 SE7       30.29F WCI  34
FREMONT        FAIR      46  27  47 SE6       30.27F
HOLLAND        MOCLDY    47  29  49 SE10      30.28F
GRAND RAPIDS   PTCLDY    44  28  53 S8        30.30S
IONIA          FAIR      40  31  68 SE6       30.30S
KALAMAZOO      PTCLDY    43  29  57 CALM      30.30S
LUDINGTON      MOCLDY    49  32  51 SE6       30.23F
MARSHALL       PTCLDY    38  29  68 E6        30.30F WCI  34
MOUNT PLEASANT MOCLDY    38  32  81 CALM      30.31S
MUSKEGON       MOCLDY    47  28  47 SE12      30.27F
SOUTH HAVEN    PTCLDY    46  27  48 SE7       30.27F
$$
MIZ016>042-200800-
NORTHERN LOWER MICHIGAN

CITY           SKY/WX    TMP DP  RH WIND       PRES   REMARKS
ALPENA         PTCLDY    30  25  81 S6        30.31F WCI  24
BEAVER ISLAND  DRIZZLE   43  31  62 SE8       30.23F
BELLAIRE       CLOUDY    47  28  47 S8G18     30.24F
CADILLAC       MOCLDY    43  29  58 S8        30.25F
CHARLEVOIX     LGT RAIN  48  30  50 SE9       30.26F
FRANKFORT      MOCLDY    49  32  52 SE9G16    30.21S
GAYLORD        CLOUDY    37  27  67 S10       30.25F WCI  30
GRAYLING       MOCLDY    31  25  79 CALM      30.28F
HARBOR SPRINGS CLOUDY    44  30  58 CALM      30.24F
HOUGHTON LAKE  PTCLDY    33  29  85 SE5       30.28F WCI  29
MANISTEE       CLOUDY    48  30  49 SE7       30.23F
OSCODA         PTCLDY    28  25  88 CALM      30.33S
PELLSTON       CLOUDY    40  25  55 E5        30.27F
ROGERS CITY    CLOUDY    36  27  71 SE5       30.32S WCI  32
TRAVERSE CITY  CLOUDY    47  30  51 S5        30.22F
$$
MIZ007>008-015-200800-
EASTERN UPPER MICHIGAN

CITY           SKY/WX    TMP DP  RH WIND       PRES   REMARKS
KINROSS        CLOUDY    34  32  93 SE17      30.26F WCI  23
MACKINAC ISLAN MIX PCPN  33  30  86 E12G21    30.26F WCI  25
NEWBERRY       LGT RAIN  33  32  95 SE7       30.22F WCI  27
S. S. MARIE    FRZ RAIN  34  28  79 E9        30.28F WCI  27
MUNISING         N/A     40  34  79 S10G21    30.14F WCI  33
$$
MIZ004>006-011>014-085-200800-
CENTRAL UPPER MICHIGAN

CITY           SKY/WX    TMP DP  RH WIND       PRES   REMARKS
MANISTIQUE     DRIZZLE   36  33  89 SE9       30.21S WCI  29
ESCANABA       CLOUDY    36  32  87 SE3       30.19S
MENOMINEE      CLOUDY    39  34  81 E5        30.18R
SAWYER-GWINN   DRIZZLE   38  35  90 S15       30.12F WCI  29
$$
MIZ001>003-009>011-084-200800-
WESTERN UPPER MICHIGAN

CITY           SKY/WX    TMP DP  RH WIND       PRES   REMARKS
IRON MOUNTAIN  CLOUDY    40  37  89 SE8       30.10F WCI  34
HOUGHTON       MOCLDY    36  31  82 CALM      30.02F
COPPER HARBOR    N/A     39  33  79 SW12G20   30.02F WCI  32
IRONWOOD       PTCLDY    50  37  62 S13G20    29.98R
$$

ABBREVIATIONS USED IN REMARKS
   TC - TEMPERATURE IN CELSIUS
  WCI - WIND CHILL INDEX
   HX - HEAT INDEX
  VSB - VISIBILITY




USA.gov is the U.S. government's official web portal to all federal, state and local government web resources and services.